Stations météo

Publicité
Berus, Allemagne (10704): Température de l'air & dewpoint: 06.07.2020 12:00:00 - 12.07.2020 12:00:00 (CEST)Berus, Allemagne (10704): Température de l'air 5cm & Température de l'air -5cm: 06.07.2020 12:00:00 - 12.07.2020 12:00:00 (CEST)Berus, Allemagne (10704): Température de l'air -20cm & Température de l'air -100cm: 06.07.2020 12:00:00 - 12.07.2020 12:00:00 (CEST)Berus, Allemagne (10704): Vitesse du vent & gusts: 06.07.2020 12:00:00 - 12.07.2020 12:00:00 (CEST)Berus, Allemagne (10704): Direction du vent: 06.07.2020 12:00:00 - 12.07.2020 12:00:00 (CEST)Berus, Allemagne (10704): reduced air pressure: 06.07.2020 12:00:00 - 12.07.2020 12:00:00 (CEST)Berus, Allemagne (10704): visibility: 06.07.2020 12:00:00 - 12.07.2020 12:00:00 (CEST)Berus, Allemagne (10704): Ensoleillement: 06.07.2020 12:00:00 - 12.07.2020 12:00:00 (CEST)Berus, Allemagne (10704): Quantités de précipitations: 06.07.2020 12:00:00 - 12.07.2020 12:00:00 (CEST)
Date & Time tt [°C] td [°C] tt 5cm [°C] tt -5cm [°C] tt -20cm [°C] tt -100cm [°C] ff [km/h] ff [knt] fx [km/h] fx [knt] dd ppp [hPa] vv [km] sd [min] rr [mm]
12.07.2020 12:00:00 20,2 5,2 29,2 25,3 20,8 18,7 16 8 27 15 NE 1025,6 60 53 0,0
12.07.2020 11:00:00 19,3 6,4 27,5 22,9 20,5 18,7 13 7 24 13 NE 1025,7 68 60 0,0
12.07.2020 10:00:00 18,0 8,4 22,7 20,2 20,5 18,7 13 7 24 13 NE 1025,9 49 60 0,0
12.07.2020 09:00:00 15,2 8,2 19,4 18,0 20,6 18,7 16 9 26 14 NE 1026,2 75 60 0,0
12.07.2020 08:00:00 13,5 7,5 15,8 16,8 20,9 18,7 16 9 22 12 NE 1026,2 52 60 0,0
12.07.2020 07:00:00 11,9 7,4 10,8 16,8 21,3 18,7 14 8 18 10 NNE 1026,3 52 44 0,0
12.07.2020 06:00:00 11,0 6,7 9,5 17,2 21,7 18,7 16 9 23 13 NNE 1025,9 46 0 0,0
12.07.2020 05:00:00 11,6 6,8 10,0 17,7 22,0 18,7 18 10 22 12 NNE 1025,6 71 0 0,0
12.07.2020 04:00:00 11,8 6,6 10,3 18,4 22,5 18,7 16 9 22 12 NNE 1025,7 51 0 0,0
12.07.2020 03:00:00 12,2 6,5 10,6 19,1 22,9 18,7 16 8 19 11 NNE 1026,0 75 0 0,0
12.07.2020 02:00:00 13,0 6,5 11,3 19,9 23,3 18,7 16 9 28 15 NNE 1025,9 72 0 0,0
12.07.2020 01:00:00 13,7 6,4 11,9 20,8 23,7 18,7 14 8 20 11 NNE 1025,8 61 0 0,0
12.07.2020 00:00:00 15,0 6,3 12,2 21,9 24,2 18,7 10 6 14 7 NNE 1025,4 75 0 0,0
11.07.2020 23:00:00 15,4 6,0 13,0 23,3 24,5 18,7 11 6 16 9 NNE 1025,2 50 0 0,0
11.07.2020 22:00:00 16,6 5,2 14,8 25,0 24,7 18,7 10 6 16 8 NNE 1024,6 75 6 0,0
11.07.2020 21:00:00 17,8 5,3 17,2 27,1 24,7 18,7 11 6 21 12 N 1024,3 69 19 0,0
11.07.2020 20:00:00 19,1 4,9 21,1 29,8 24,5 18,7 10 6 27 15 NNE 1023,9 75 38 0,0
11.07.2020 19:00:00 20,7 4,3 28,1 31,1 24,1 18,7 9 5 24 13 N 1023,3 75 60 0,0
11.07.2020 18:00:00 20,8 2,5 28,5 30,9 23,7 18,7 10 5 25 14 NNW 1023,4 59 59 0,0
11.07.2020 17:00:00 19,9 3,8 26,5 30,2 23,2 18,7 11 6 26 14 N 1023,4 55 33 0,0
11.07.2020 16:00:00 20,0 3,5 28,9 30,1 22,7 18,7 9 5 28 15 N 1023,5 62 42 0,0
11.07.2020 15:00:00 18,8 5,2 24,2 29,3 22,0 18,6 9 5 24 13 NNW 1023,5 74 26 0,0
11.07.2020 14:00:00 19,2 5,4 28,5 29,0 21,4 18,6 15 8 25 14 N 1023,5 75 51 0,0
11.07.2020 13:00:00 19,2 5,7 29,5 26,3 20,8 18,6 9 5 26 14 NNW 1023,5 52 48 0,0
11.07.2020 12:00:00 19,0 6,5 27,0 23,9 20,4 18,6 6 4 21 11 NW 1023,4 72 32 0,0
11.07.2020 11:00:00 17,2 7,2 24,6 22,3 20,1 18,6 5 3 21 12 NNE 1023,2 75 49 0,0
11.07.2020 10:00:00 16,4 8,1 22,8 20,1 20,0 18,6 10 5 18 10 N 1023,1 56 60 0,0
11.07.2020 09:00:00 15,2 9,0 18,6 17,8 20,2 18,6 9 5 16 9 NE 1023,1 59 60 0,0
11.07.2020 08:00:00 13,7 9,5 16,3 16,5 20,4 18,6 11 6 18 10 NE 1022,7 39 60 0,0
11.07.2020 07:00:00 12,2 9,2 11,1 16,4 20,7 18,6 13 7 17 9 NNE 1022,2 49 45 0,0
11.07.2020 06:00:00 11,5 9,0 9,7 16,8 21,0 18,6 11 6 17 9 N 1021,9 68 0 0,0
11.07.2020 05:00:00 12,1 9,1 10,0 17,4 21,3 18,6 11 6 19 11 N 1021,3 57 0 0,0
11.07.2020 04:00:00 12,5 9,6 10,5 18,1 21,6 18,6 11 6 18 10 N 1020,9 64 0 0,0
11.07.2020 03:00:00 13,6 10,5 12,3 18,7 21,9 18,6 11 6 19 10 N 1020,9 75 0 0,0
11.07.2020 02:00:00 13,5 10,1 11,9 19,3 22,2 18,6 10 5 21 11 N 1020,3 61 0 0,0
11.07.2020 01:00:00 14,8 10,6 14,1 20,0 22,5 18,6 14 7 22 12 N 1019,6 75 0 0,0
11.07.2020 00:00:00 15,1 11,1 14,2 20,7 22,7 18,6 13 7 21 11 N 1018,8 75 0 0,0
10.07.2020 23:00:00 15,9 11,2 15,4 21,6 23,0 18,6 11 6 21 12 NNW 1018,1 75 0 0,0
10.07.2020 22:00:00 16,7 11,0 16,7 22,4 23,1 18,6 13 7 24 13 N 1017,2 75 0 0,0
10.07.2020 21:00:00 17,9 10,9 18,0 23,2 23,2 18,6 8 5 22 12 NW 1016,9 75 0 0,0
10.07.2020 20:00:00 18,5 10,5 19,1 23,9 23,3 18,5 15 8 23 13 W 1016,2 75 0 0,0
10.07.2020 19:00:00 19,3 11,8 20,8 24,4 23,3 18,5 13 7 31 17 WSW 1015,8 74 0 0,0
10.07.2020 18:00:00 19,2 11,0 20,4 24,6 23,3 18,5 19 10 30 16 W 1015,8 69 0 0,0
10.07.2020 17:00:00 19,5 11,7 20,9 25,4 23,1 18,5 15 8 30 16 WNW 1015,4 75 0 0,0
10.07.2020 16:00:00 20,6 11,9 23,7 26,1 23,0 18,5 16 8 33 18 W 1015,0 75 2 0,0
10.07.2020 15:00:00 20,0 12,3 22,8 25,5 22,7 18,5 15 8 31 17 WSW 1015,1 75 0 0,0
10.07.2020 14:00:00 19,8 12,7 22,7 25,4 22,5 18,5 19 11 45 25 W 1014,8 64 1 0,0
10.07.2020 13:00:00 19,2 12,4 22,6 24,4 22,4 18,5 25 13 45 24 WSW 1014,5 60 4 0,0
10.07.2020 12:00:00 19,0 13,8 22,7 22,7 22,4 18,5 19 10 44 24 W 1013,9 75 0 0,0
10.07.2020 11:00:00 18,1 13,0 19,9 22,6 22,4 18,5 24 13 39 21 WSW 1013,2 75 1 0,0
10.07.2020 10:00:00 17,5 13,4 19,0 21,9 22,5 18,5 17 9 35 19 W 1013,1 57 0 0,0
10.07.2020 09:00:00 18,0 13,7 19,6 21,4 22,6 18,5 16 9 29 16 WSW 1012,3 53 0 0,0
10.07.2020 08:00:00 17,3 13,7 18,0 20,9 22,9 18,5 11 6 28 15 WSW 1011,8 44 25 0,0
10.07.2020 07:00:00 17,5 13,0 17,7 20,8 23,1 18,5 15 8 29 16 WNW 1011,6 52 25 0,0
10.07.2020 06:00:00 18,3 12,3 17,4 21,1 23,4 18,5 19 10 32 17 WSW 1010,6 48 0 0,0
10.07.2020 05:00:00 19,3 12,1 18,2 21,5 23,7 18,5 18 10 26 14 SW 1010,1 45 0 0,0
10.07.2020 04:00:00 19,2 12,0 17,6 22,0 24,1 18,5 16 9 23 13 SW 1010,6 44 0 0,0
10.07.2020 03:00:00 18,8 12,2 16,7 22,7 24,4 18,5 15 8 19 11 SW 1010,9 46 0 0,0
10.07.2020 02:00:00 20,1 12,3 18,7 23,3 24,8 18,5 16 9 24 13 SSW 1011,3 39 0 0,0
10.07.2020 01:00:00 20,3 12,5 19,1 24,1 25,1 18,5 14 8 21 11 SSW 1011,7 46 0 0,0
10.07.2020 00:00:00 20,5 12,5 17,9 25,2 25,5 18,5 8 4 11 6 SSW 1011,9 44 0 0,0
09.07.2020 23:00:00 22,2 11,8 19,7 26,4 25,7 18,5 9 5 13 7 WSW 1012,1 48 0 0,0
09.07.2020 22:00:00 23,3 11,8 21,9 27,6 25,9 18,5 9 5 22 12 W 1012,0 36 0 0,0
09.07.2020 21:00:00 24,8 11,4 24,0 29,3 26,0 18,4 14 7 29 16 WSW 1011,9 39 49 0,0
09.07.2020 20:00:00 26,7 11,2 28,3 31,3 25,9 18,4 16 9 35 19 WSW 1011,8 39 59 0,0
09.07.2020 19:00:00 27,5 10,8 30,1 32,6 25,6 18,4 26 14 40 22 WSW 1012,0 50 55 0,0
09.07.2020 18:00:00 28,2 12,6 32,4 33,5 25,1 18,4 22 12 40 21 WSW 1012,3 50 52 0,0
09.07.2020 17:00:00 28,2 12,4 32,6 34,0 24,5 18,4 25 14 42 23 WSW 1012,8 57 54 0,0
09.07.2020 16:00:00 27,4 12,0 31,7 33,9 23,8 18,4 25 14 43 23 WSW 1013,5 40 54 0,0
09.07.2020 15:00:00 28,1 11,7 34,8 33,2 23,0 18,4 22 12 42 23 WSW 1013,7 57 59 0,0
09.07.2020 14:00:00 26,7 11,8 33,4 31,6 22,3 18,4 20 11 42 23 WSW 1014,3 56 56 0,0
09.07.2020 13:00:00 26,0 13,4 32,2 29,7 21,6 18,4 24 13 41 22 SW 1014,8 71 59 0,0
09.07.2020 12:00:00 24,3 14,2 30,5 27,4 21,0 18,4 19 10 33 18 WSW 1015,1 58 54 0,0
09.07.2020 11:00:00 23,0 15,5 28,5 24,9 20,6 18,4 21 12 32 17 WSW 1015,6 63 59 0,0
09.07.2020 10:00:00 21,8 15,3 25,9 22,3 20,4 18,4 14 7 24 13 SW 1015,8 55 60 0,0
09.07.2020 09:00:00 19,5 15,2 22,7 20,0 20,4 18,4 13 7 18 10 SW 1016,2 45 49 0,0
09.07.2020 08:00:00 17,1 14,7 17,5 18,8 20,5 18,5 13 7 18 10 WSW 1016,9 51 0 0,0
09.07.2020 07:00:00 16,3 14,3 15,8 18,4 20,7 18,5 11 6 17 9 W 1016,9 49 0 0,0
09.07.2020 06:00:00 15,6 14,1 14,8 18,6 20,9 18,5 11 6 14 8 WSW 1016,9 37 0 0,0
09.07.2020 05:00:00 15,6 14,2 15,4 18,8 21,1 18,5 7 4 11 6 SW 1017,0 42 0 0,0
09.07.2020 04:00:00 15,4 14,2 14,0 18,8 21,4 18,5 6 3 9 5 SSW 1017,0 39 0 0,0
09.07.2020 03:00:00 15,0 13,9 13,1 19,1 21,6 18,5 7 4 9 5 SSW 1017,2 38 0 0,0
09.07.2020 02:00:00 15,5 14,2 13,2 19,7 21,9 18,5 6 3 7 4 SSW 1017,6 31 0 0,0
09.07.2020 01:00:00 15,5 14,2 13,4 20,4 22,2 18,5 5 3 6 4 SSW 1017,6 38 0 0,0
09.07.2020 00:00:00 16,0 14,2 14,5 21,3 22,4 18,5 4 2 5 3 SSW 1018,0 49 0 0,0
08.07.2020 23:00:00 17,2 14,4 16,8 22,2 22,5 18,5 4 2 13 7 NE 1017,7 58 0 0,0
08.07.2020 22:00:00 17,8 14,2 18,1 22,9 22,6 18,5 9 5 15 8 NNE 1017,4 58 0 0,0
08.07.2020 21:00:00 18,5 13,9 19,5 23,9 22,6 18,5 11 6 16 9 NNE 1016,9 49 0 0,0
08.07.2020 20:00:00 19,9 13,8 22,4 24,7 22,6 18,4 6 3 14 8 NNE 1016,5 46 0 0,0
08.07.2020 19:00:00 21,1 13,4 22,6 24,6 22,6 18,4 8 4 24 13 NW 1016,3 59 0 0,0
08.07.2020 18:00:00 20,9 12,3 21,9 25,3 22,4 18,4 11 6 32 17 W 1016,4 56 0 0,0
08.07.2020 17:00:00 21,5 10,7 23,2 26,5 22,1 18,4 21 11 39 21 WSW 1016,3 47 0 0,0
08.07.2020 16:00:00 22,6 10,5 26,3 26,4 21,8 18,4 21 11 39 21 W 1016,0 61 3 0,0
08.07.2020 15:00:00 21,3 10,2 24,6 25,5 21,5 18,4 15 8 32 18 W 1016,2 57 0 0,0
08.07.2020 14:00:00 21,3 9,6 24,8 25,7 21,0 18,4 19 11 34 18 W 1016,3 66 0 0,0
08.07.2020 13:00:00 21,5 10,4 27,6 24,5 20,7 18,4 22 12 35 19 WSW 1016,4 59 17 0,0
08.07.2020 12:00:00 18,4 10,1 21,4 23,0 20,4 18,4 15 8 26 14 WSW 1017,1 41 1 0,0
08.07.2020 11:00:00 19,7 10,3 24,8 21,8 20,2 18,4 17 9 29 16 WSW 1017,0 45 18 0,0
08.07.2020 10:00:00 15,9 9,7 18,3 20,2 20,2 18,4 18 10 26 14 WSW 1017,4 39 1 0,0
08.07.2020 09:00:00 15,2 9,6 17,9 18,6 20,3 18,5 10 6 21 11 SW 1017,5 37 12 0,0
08.07.2020 08:00:00 14,0 9,0 15,1 17,6 20,5 18,5 12 6 21 11 WSW 1017,6 53 0 0,0
08.07.2020 07:00:00 12,5 7,9 12,6 17,2 20,8 18,5 9 5 15 8 W 1017,8 48 0 0,0
08.07.2020 06:00:00 13,0 7,2 12,2 17,3 21,1 18,5 12 7 23 12 WSW 1017,6 51 0 0,0
08.07.2020 05:00:00 13,5 7,2 12,3 17,7 21,4 18,5 14 8 19 11 WSW 1017,5 46 0 0,0
08.07.2020 04:00:00 13,0 7,1 11,5 18,1 21,8 18,5 15 8 18 10 WSW 1017,8 54 0 0,0
08.07.2020 03:00:00 13,0 7,1 11,5 18,8 22,2 18,5 12 6 16 8 WSW 1018,4 52 0 0,0
08.07.2020 02:00:00 13,5 6,8 11,4 19,5 22,6 18,5 9 5 11 6 WSW 1018,7 45 0 0,0
08.07.2020 01:00:00 15,0 6,6 13,1 20,4 23,0 18,5 9 5 17 9 W 1018,7 57 0 0,0
08.07.2020 00:00:00 16,1 6,7 14,2 21,3 23,3 18,5 10 6 17 9 WNW 1018,8 57 0 0,0
07.07.2020 23:00:00 16,5 6,7 14,3 22,5 23,7 18,5 9 5 14 8 WNW 1018,7 51 0 0,0
07.07.2020 22:00:00 17,2 6,5 15,0 24,0 23,9 18,5 8 4 14 7 WNW 1018,6 42 9 0,0
07.07.2020 21:00:00 17,9 6,5 16,8 26,0 23,9 18,5 8 4 17 9 W 1018,5 49 60 0,0
07.07.2020 20:00:00 19,9 5,4 22,4 28,2 23,8 18,5 10 5 24 13 W 1018,3 51 56 0,0
07.07.2020 19:00:00 20,3 5,3 24,9 29,3 23,5 18,5 8 4 16 9 NW 1018,2 59 41 0,0
07.07.2020 18:00:00 20,7 5,9 25,0 30,1 23,0 18,5 11 6 24 13 WNW 1018,6 61 43 0,0
07.07.2020 17:00:00 21,5 6,6 28,2 30,6 22,5 18,5 12 7 23 12 W 1019,1 42 46 0,0
07.07.2020 16:00:00 20,4 5,0 27,9 29,5 21,9 18,5 9 5 24 13 W 1019,5 46 44 0,0
07.07.2020 15:00:00 19,1 5,9 23,3 28,4 21,3 18,5 12 7 21 12 WSW 1020,4 59 17 0,0
07.07.2020 14:00:00 19,3 6,1 25,4 28,3 20,7 18,5 8 4 19 11 W 1020,7 45 41 0,0
07.07.2020 13:00:00 18,1 7,3 24,3 26,2 20,0 18,5 9 5 19 11 W 1021,3 55 12 0,0
07.07.2020 12:00:00 18,7 5,8 27,5 25,2 19,4 18,5 7 4 19 10 SSE 1021,1 67 60 0,0
07.07.2020 11:00:00 16,6 6,1 22,4 22,1 19,0 18,5 10 5 18 10 S 1021,7 75 60 0,0
07.07.2020 10:00:00 15,2 6,7 20,9 19,2 18,9 18,5 5 3 12 6 E 1022,3 45 60 0,0
07.07.2020 09:00:00 14,3 7,8 19,0 16,6 18,9 18,5 5 3 8 4 NE 1022,4 44 60 0,0
07.07.2020 08:00:00 12,6 7,3 16,3 14,8 19,2 18,5 3 1 6 3 NE 1022,4 44 60 0,0
07.07.2020 07:00:00 10,9 6,5 8,5 14,5 19,5 18,5 2 1 6 3 SE 1022,9 56 48 0,0
07.07.2020 06:00:00 9,7 6,4 5,0 14,8 19,9 18,5 5 3 7 4 NE 1022,8 57 0 0,0
07.07.2020 05:00:00 8,9 6,1 4,8 15,4 20,3 18,5 7 4 9 5 NNE 1023,2 57 0 0,0
07.07.2020 04:00:00 9,1 6,0 5,5 16,1 20,6 18,5 6 3 13 7 NNE 1023,1 49 0 0,0
07.07.2020 03:00:00 11,8 5,8 9,8 16,7 21,0 18,5 10 6 16 9 N 1022,9 64 0 0,0
07.07.2020 02:00:00 12,5 5,8 10,0 17,4 21,4 18,5 11 6 20 11 N 1022,8 52 0 0,0
07.07.2020 01:00:00 12,9 6,0 10,5 18,2 21,8 18,5 14 8 21 11 NNW 1022,7 56 0 0,0
07.07.2020 00:00:00 13,4 6,3 11,5 19,1 22,1 18,5 13 7 19 10 NNW 1022,6 47 0 0,0
06.07.2020 23:00:00 14,0 6,6 11,3 20,3 22,4 18,5 9 5 17 9 NW 1022,4 50 0 0,0
06.07.2020 22:00:00 14,9 6,6 13,2 21,7 22,6 18,5 10 5 17 9 WNW 1021,7 51 8 0,0
06.07.2020 21:00:00 15,9 7,3 15,5 23,3 22,7 18,5 8 4 15 8 NW 1020,9 59 15 0,0
06.07.2020 20:00:00 16,2 6,8 16,5 25,3 22,5 18,5 10 6 26 14 WNW 1020,6 43 47 0,0
06.07.2020 19:00:00 17,8 5,9 21,9 25,8 22,3 18,5 11 6 40 22 WNW 1020,1 44 25 0,0
06.07.2020 18:00:00 18,0 6,9 22,9 26,5 22,0 18,5 11 6 37 20 NW 1019,8 46 30 0,0
06.07.2020 17:00:00 19,0 7,3 24,6 25,4 21,7 18,5 18 10 34 19 W 1019,2 52 18 0,0
06.07.2020 16:00:00 17,7 6,3 21,9 25,5 21,4 18,5 15 8 38 20 W 1019,1 50 20 0,0
06.07.2020 15:00:00 17,8 6,7 22,8 24,6 21,0 18,5 18 10 40 22 W 1018,5 60 9 0,0
06.07.2020 14:00:00 16,6 5,9 21,7 24,6 20,6 18,4 16 9 37 20 WNW 1018,8 52 25 0,0
06.07.2020 13:00:00 15,9 6,1 20,8 23,3 20,3 18,4 20 11 43 23 WSW 1018,8 49 29 0,0
06.07.2020 12:00:00 15,3 7,0 20,1 21,6 20,1 18,4 20 11 40 21 W 1018,7 43 20 0,0

tt = Température de l'air
td = dewpoint
tt 5cm = Température de l'air 5cm
tt -5cm = Température de l'air -5cm
tt -20cm = Température de l'air -20cm
tt -100cm = Température de l'air -100cm
ff = Vitesse du vent
fx = gusts
dd = Direction du vent
ppp = reduced air pressure
vv = visibility
sd = Ensoleillement
rr = Quantités de précipitations

stations d'obs. à proximité